Location: Brunembert
(50.7122°N, 1.8935°E)
Time: 10:09:00
(UTC+00:00)

Cosmos 1151 Rocket - Pass Details

Date: 22 April 2021
Orbit: 593 x 614 km, 82.5° (Epoch: 05 May)

Event Time Altitude Azimuth Distance (km) Brightness Sun altitude
Exits shadow 22:34:17 33° 64° (ENE) 1,035 4.2 -24.6°
Drops below altitude 10° 22:37:22 10° 25° (NNE) 1,965 6.2 -24.8°
Sets 22:39:43 0° 17° (NNE) 2,878 7.3 -24.9°
